Regional Weather Roundup
Issued by NWS

Home | Current Version | Previous Version | Graphics & Text | Print | Product List | Glossary On
Versions: 1 2 3 4 5 6 7 8 9 10 11 12 13 14 15 16 17 18 19 20 21 22 23 24 25 26 27 28 29 30 31 32 33 34 35 36 37 38 39 40 41 42 43 44 45 46 47 48 49 50
000
ASUS45 KSLC 261110
RWRUT

UTAH REGIONAL WEATHER ROUNDUP
NATIONAL WEATHER SERVICE SALT LAKE CITY UT
500 AM MDT WED JUL 26 2017

UTZ001>011-023>025-261200-

NORTHERN UTAH

CITY           SKY/WX    TMP DP  RH WIND       PRES   REMARKS
BRIGHAM CITY   CLOUDY    69  56  62 NE3       30.14R
HILL AFB       LGT RAIN  66  61  82 S9        30.20R
LOGAN          CLOUDY    63  56  78 W3        30.15S
OGDEN          CLOUDY    70  61  73 S13       30.16R
SALT LAKE CITY RAIN      66  64  93 SE9       30.18R
TOOELE VALLEY  CLOUDY    66  59  77 S7        30.16S
WENDOVER       PTCLDY    69  58  67 N5        30.16R
HEBER CITY     DRIZZLE   63  57  82 CALM      30.23S
WEST JORDAN    CLOUDY    64  64 100 CALM      30.22R

$$

UTZ011>015-024>027-261200-

CENTRAL/NORTHEAST UTAH

CITY           SKY/WX    TMP DP  RH WIND       PRES   REMARKS
PROVO AIRPORT  NOT AVBL
MOAB/CANYONLAN CLOUDY    68  67  96 W3        30.16R
DELTA          PTCLDY    63  57  82 S6        30.20R
PRICE          PTCLDY    60  59  96 CALM      30.26R
RICHFIELD      CLEAR     57  57 100 CALM      30.26
ROOSEVELT      CLOUDY    63  61  94 CALM      30.24R
VERNAL         CLOUDY    65  63  93 CALM      30.23R

$$

UTZ013>016-019>022-027-261200-

SOUTHERN UTAH

CITY           SKY/WX    TMP DP  RH WIND       PRES   REMARKS
BRYCE CANYON   CLEAR     53  53 100 W6        30.39R
CEDAR CITY     CLEAR     59  57  93 CALM      30.26R
MILFORD        CLEAR     64  59  83 SW12      30.22R
ST GEORGE      CLOUDY    72  65  78 E6        30.13R
HANKSVILLE     CLEAR     64  63  94 NW3       30.19S
KANAB          CLEAR     61  59  94 N3        30.28
BLANDING       CLEAR     61  58  90 N3        30.34R

$$

REGIONAL REPORTS     COLORADO/ARIZONA

CITY           SKY/WX    TMP DP  RH WIND       PRES   REMARKS
CRAIG, CO      CLOUDY    62  59  90 CALM      30.28R
GRAND JUNCTION CLOUDY    67  66  97 E6        30.19R
RIFLE, CO      LGT RAIN  64  62  93 W5        30.24R
MONTROSE, CO   CLOUDY    62  61  96 SW3       30.27R
CORTEZ, CO     CLEAR     56  55  97 E6        30.28R
COLORADO CITY    N/A     63  61  94 CALM      30.27S
PAGE, AZ       CLEAR     69  61  75 CALM      30.18S
GRAND CANYON   CLOUDY    51  51 100 NE3       30.34F
KINGMAN, AZ    PTCLDY    67  64  90 NE5       30.13F
FLAGSTAFF, AZ  PTCLDY    53  52  96 SW3       30.37S

$$

REGIONAL REPORTS    NEVADA/IDAHO/WYOMING

CITY           SKY/WX    TMP DP  RH WIND       PRES   REMARKS
LAS VEGAS, NV  PTCLDY    79  66  64 NW3       30.05S
ELY, NY        PTCLDY    52  51  97 MISG      30.29F
ELKO, NV       CLEAR     59  52  77 NW3       30.19F
POCATELLO, ID  CLOUDY    65  56  72 S6        30.16R
BURLEY, ID     CLOUDY    65  59  81 CALM      30.13S
FORT BRIDGER,  CLOUDY    58  52  80 W6        30.35S
EVANSTON, WY   CLOUDY    57  54  89 E7        30.32S
ROCK SPRINGS,  CLOUDY    57  52  83 E3        30.31S
KEMMERER, WY     N/A     55  46  71 N8        30.35R

$$



USA.gov is the U.S. government's official web portal to all federal, state and local government web resources and services.